FW9848 Weather Reports


Display with metric or nautical units.
time (UTC)temp
F
wind
direction
speed
MPH
gust
MPH
rain 1hr
in
rain 24hr
in
rain mn
in
humidity
%
barometer
mb
20260904050058 82 0 2.0 9.0 0.00 0.00 0.00 74 1015.4
20260904044559 83 51 0.0 4.0 0.00 0.00 0.00 73 1015.2
20260904043105 83 0 0.0 6.0 0.00 0.00 0.00 72 1014.9
20260904041605 84 0 0.0 0.0 0.00 0.00 0.00 70 1015.1
20260904040100 84 46 1.0 4.0 0.00 0.00 0.00 67 1015.1
20260904034602 85 0 0.0 6.0 0.00 0.00 0.00 64 1015.0
20260904033101 86 37 0.0 10.0 0.00 0.00 0.00 61 1014.8
20260904031602 86 48 3.0 9.0 0.00 0.00 0.00 58 1014.7
20260904030109 87 34 4.0 13.0 0.00 0.00 0.00 55 1014.4
20260904024614 87 0 2.0 9.0 0.00 0.00 0.00 56 1014.2
20260904023102 87 54 1.0 8.0 0.00 0.00 0.00 58 1013.7
20260904021558 88 0 0.0 3.0 0.00 0.00 0.00 58 1013.3
20260904014612 89 0 2.0 8.0 0.00 0.00 0.00 56 1013.1
20260904013106 89 78 2.0 8.0 0.00 0.00 0.00 54 1012.8
20260904011603 91 41 2.0 10.0 0.00 0.00 0.00 52 1012.7
20260904010100 93 306 3.0 10.0 0.00 0.00 0.00 48 1012.3
20260904004556 95 0 0.0 8.0 0.00 0.00 0.00 45 1012.1
20260904003054 96 0 0.0 0.0 0.00 0.00 0.00 40 1011.8
20260904001557 97 0 0.0 0.0 0.00 0.00 0.00 39 1011.7
20260903234559 98 0 0.0 5.0 0.00 0.00 0.00 38 1011.7
20260903233054 99 0 0.0 4.0 0.00 0.00 0.00 39 1011.7
20260903231604 100 0 0.0 2.0 0.00 0.00 0.00 39 1011.5
20260903230107 100 0 0.0 0.0 0.00 0.00 0.00 38 1011.6
20260903224558 101 0 0.0 0.0 0.00 0.00 0.00 39 1011.4
20260903223101 101 0 0.0 0.0 0.00 0.00 0.00 40 1011.5
20260903221600 101 0 0.0 1.0 0.00 0.00 0.00 37 1011.7
20260903220119 101 0 0.0 0.0 0.00 0.00 0.00 39 1011.7
20260903214559 102 0 0.0 2.0 0.00 0.00 0.00 39 1011.8
20260903213056 102 61 1.0 4.0 0.00 0.00 0.00 41 1011.9
20260903211602 101 0 0.0 0.0 0.00 0.00 0.00 39 1012.1
20260903210115 101 0 0.0 0.0 0.00 0.00 0.00 39 1012.4
20260903204559 101 0 0.0 0.0 0.00 0.00 0.00 41 1012.7
20260903203058 101 0 0.0 0.0 0.00 0.00 0.00 41 1012.9
20260903201556 100 0 0.0 0.0 0.00 0.00 0.00 45 1012.9
20260903194600 100 0 1.0 7.0 0.00 0.00 0.00 47 1013.3
20260903193101 99 0 1.0 7.0 0.00 0.00 0.00 46 1013.5
20260903191559 99 0 0.0 0.0 0.00 0.00 0.00 47 1013.8
20260903190056 99 0 0.0 0.0 0.00 0.00 0.00 48 1014.0
20260903184602 98 0 0.0 0.0 0.00 0.00 0.00 46 1014.4
20260903183100 97 0 0.0 1.0 0.00 0.00 0.00 50 1014.6
20260903181555 96 100 0.0 8.0 0.00 0.00 0.00 54 1015.0
20260903180054 96 55 0.0 6.0 0.00 0.00 0.00 52 1015.1
20260903174557 95 0 1.0 8.0 0.00 0.00 0.00 53 1015.3
20260903173058 95 0 0.0 1.0 0.00 0.00 0.00 56 1015.5
20260903171602 94 0 0.0 0.0 0.00 0.00 0.00 58 1015.7
20260903170104 93 0 0.0 0.0 0.00 0.00 0.00 62 1016.0
20260903164606 92 0 0.0 2.0 0.00 0.00 0.00 62 1016.1
20260903163107 91 0 0.0 7.0 0.00 0.00 0.00 63 1016.2
20260903161603 90 0 0.0 0.0 0.00 0.00 0.00 66 1016.1
20260903160110 89 0 0.0 4.0 0.00 0.00 0.00 67 1016.2
20260903154556 87 76 0.0 0.0 0.00 0.00 0.00 69 1016.1
20260903153055 87 0 0.0 7.0 0.00 0.00 0.00 72 1016.1
20260903151603 86 0 0.0 8.0 0.00 0.00 0.00 74 1016.2
20260903150059 84 0 0.0 0.0 0.00 0.00 0.00 77 1016.3
20260903144557 82 0 0.0 0.0 0.00 0.00 0.00 78 1016.2
20260903143110 82 0 0.0 0.0 0.00 0.00 0.00 78 1016.3
20260903141601 82 0 0.0 0.0 0.00 0.00 0.00 79 1016.3
20260903140059 81 0 0.0 0.0 0.00 0.00 0.00 79 1016.3
20260903134555 81 0 0.0 0.0 0.00 0.00 0.00 79 1016.4
20260903133108 80 0 0.0 0.0 0.00 0.00 0.00 79 1016.4
20260903131606 79 0 0.0 0.0 0.00 0.00 0.00 78 1016.3
20260903130119 79 0 0.0 1.0 0.00 0.00 0.00 77 1016.3
20260903124600 79 0 0.0 1.0 0.00 0.00 0.00 76 1016.0
20260903123054 79 0 0.0 0.0 0.00 0.00 0.00 76 1016.1
20260903121644 78 0 0.0 0.0 0.00 0.00 0.00 75 1016.0
20260903120058 78 0 0.0 0.0 0.00 0.00 0.00 77 1015.7
20260903114602 79 0 0.0 0.0 0.00 0.00 0.00 77 1015.6
20260903113054 79 0 0.0 0.0 0.00 0.00 0.00 78 1015.7
20260903111608 79 0 0.0 0.0 0.00 0.00 0.00 78 1015.7
20260903110100 79 0 0.0 0.0 0.00 0.00 0.00 78 1015.8
20260903104557 79 0 0.0 0.0 0.00 0.00 0.00 78 1015.8
20260903103057 79 0 0.0 0.0 0.00 0.00 0.00 78 1015.7
20260903101604 80 0 0.0 0.0 0.00 0.00 0.00 78 1015.6
20260903094606 80 0 0.0 0.0 0.00 0.00 0.00 78 1015.6
20260903093111 80 0 0.0 0.0 0.00 0.00 0.00 78 1015.5
20260903091557 80 0 0.0 0.0 0.00 0.00 0.00 79 1015.6
20260903090056 80 0 0.0 0.0 0.00 0.00 0.00 78 1015.6
20260903084604 80 0 0.0 0.0 0.00 0.00 0.00 78 1015.6
20260903083058 80 0 0.0 0.0 0.00 0.00 0.00 78 1015.6
20260903081602 80 0 0.0 0.0 0.00 0.00 0.00 79 1015.5
20260903080107 80 0 0.0 0.0 0.00 0.00 0.00 79 1015.5
20260903074601 80 0 0.0 0.0 0.00 0.00 0.00 78 1015.5
20260903073059 81 0 0.0 0.0 0.00 0.00 0.00 78 1015.7
20260903071601 81 0 0.0 0.0 0.00 0.00 0.00 77 1015.8
20260903070059 81 0 0.0 0.0 0.00 0.00 0.00 76 1015.8
20260903064601 82 0 0.0 0.0 0.00 0.00 0.00 76 1015.8
20260903063052 82 0 0.0 0.0 0.00 0.00 0.00 75 1015.8
20260903061602 82 0 0.0 0.0 0.00 0.00 0.00 75 1015.7
20260903060100 83 0 0.0 0.0 0.00 0.00 0.00 74 1015.6
20260903054556 83 0 0.0 0.0 0.00 0.00 0.00 74 1015.6
20260903053101 84 0 0.0 0.0 0.00 0.00 0.00 73 1015.6
20260903051558 84 0 0.0 0.0 0.00 0.00 0.00 72 1015.5